EN

Hourly Weather Alshanka

Today, 24 January, Sunday

Time Temperature Precipitation Wind Pressure Humidity
00:00 -1°C° 0 mm 4 mps 739 mmHg 99%
01:00 -1°C° 0 mm 4 mps 739 mmHg 99%
02:00 -1°C° 0 mm 4 mps 739 mmHg 99%
03:00 -1°C° 0 mm 4 mps 739 mmHg 99%
04:00 -1°C° 0 mm 4 mps 739 mmHg 99%
05:00 -1°C° 0 mm 4 mps 738 mmHg 99%
06:00 -1°C° 0 mm 4 mps 738 mmHg 99%
07:00 0°C° 0 mm 4 mps 739 mmHg 99%
08:00 0°C° 0 mm 4 mps 739 mmHg 99%
09:00 0°C° 0 mm 5 mps 739 mmHg 99%
10:00 0°C° 0 mm 5 mps 739 mmHg 99%
11:00 0°C° 0 mm 5 mps 739 mmHg 99%
12:00 0°C° 0 mm 5 mps 738 mmHg 99%
13:00 0°C° 0 mm 5 mps 738 mmHg 99%
14:00 -1°C° 0 mm 6 mps 738 mmHg 99%
15:00 -1°C° 0 mm 6 mps 738 mmHg 97%
16:00 -1°C° 0 mm 6 mps 738 mmHg 95%
17:00 -1°C° 0 mm 6 mps 738 mmHg 93%
18:00 -1°C° 0 mm 6 mps 738 mmHg 89%
19:00 -1°C° 0 mm 6 mps 738 mmHg 85%
20:00 -1°C° 0 mm 7 mps 738 mmHg 81%
21:00 -2°C° 0 mm 7 mps 738 mmHg 82%
22:00 -2°C° 0 mm 7 mps 737 mmHg 82%
23:00 -2°C° 0 mm 7 mps 737 mmHg 83%

Tomorrow, 25 January, Monday

Time Temperature Precipitation Wind Pressure Humidity
00:00 -2°C° 0 mm 7 mps 737 mmHg 86%
01:00 -2°C° 0 mm 7 mps 737 mmHg 89%
02:00 -2°C° 0 mm 6 mps 737 mmHg 92%
03:00 -2°C° 0 mm 6 mps 737 mmHg 93%
04:00 -2°C° 0 mm 6 mps 737 mmHg 95%
05:00 -2°C° 0 mm 6 mps 737 mmHg 96%
06:00 -2°C° 0 mm 6 mps 737 mmHg 96%
07:00 -1°C° 0 mm 5 mps 737 mmHg 97%
08:00 -1°C° 0 mm 5 mps 737 mmHg 97%
09:00 -1°C° 0 mm 5 mps 737 mmHg 98%
10:00 -1°C° 0 mm 5 mps 737 mmHg 99%
11:00 -1°C° 0 mm 5 mps 737 mmHg 99%
12:00 -1°C° 0 mm 4 mps 737 mmHg 99%
13:00 0°C° 0 mm 4 mps 737 mmHg 99%
14:00 0°C° 0 mm 4 mps 737 mmHg 99%
15:00 0°C° 0 mm 4 mps 737 mmHg 99%
16:00 0°C° 0 mm 4 mps 737 mmHg 99%
17:00 0°C° 0 mm 4 mps 737 mmHg 98%
18:00 -1°C° 0 mm 5 mps 737 mmHg 98%
19:00 -1°C° 0 mm 5 mps 737 mmHg 98%
20:00 -1°C° 0 mm 5 mps 737 mmHg 98%
21:00 -2°C° 0.1 mm 6 mps 737 mmHg 98%
22:00 -2°C° 0.1 mm 6 mps 736 mmHg 97%
23:00 -2°C° 0.1 mm 7 mps 736 mmHg 97%

Day after tomorrow, 26 January, Tuesday

Time Temperature Precipitation Wind Pressure Humidity
00:00 -2°C° 0 mm 7 mps 735 mmHg 94%
01:00 -2°C° 0 mm 8 mps 735 mmHg 92%
02:00 -2°C° 0 mm 8 mps 734 mmHg 89%
03:00 -2°C° 0.2 mm 8 mps 734 mmHg 91%
04:00 -3°C° 0.2 mm 9 mps 733 mmHg 92%
05:00 -3°C° 0.2 mm 9 mps 732 mmHg 94%
06:00 -3°C° 0.5 mm 9 mps 732 mmHg 95%
07:00 -3°C° 0.5 mm 9 mps 732 mmHg 96%
08:00 -3°C° 0.5 mm 9 mps 731 mmHg 97%
09:00 -3°C° 0.1 mm 9 mps 731 mmHg 96%
10:00 -1°C° 0.1 mm 8 mps 731 mmHg 96%
11:00 -1°C° 0.1 mm 8 mps 731 mmHg 95%
12:00 -1°C° 0.3 mm 8 mps 731 mmHg 96%
13:00 -1°C° 0.3 mm 7 mps 730 mmHg 97%
14:00 -1°C° 0.3 mm 7 mps 730 mmHg 97%
15:00 -1°C° 1.4 mm 7 mps 729 mmHg 97%
16:00 -2°C° 1.4 mm 7 mps 729 mmHg 97%
17:00 -2°C° 1.4 mm 7 mps 728 mmHg 97%
18:00 -2°C° 0.1 mm 7 mps 728 mmHg 92%
19:00 -3°C° 0.1 mm 7 mps 728 mmHg 87%
20:00 -3°C° 0.1 mm 7 mps 727 mmHg 82%
21:00 -4°C° 0.1 mm 7 mps 727 mmHg 86%
22:00 -5°C° 0.1 mm 8 mps 728 mmHg 89%
23:00 -5°C° 0.1 mm 9 mps 728 mmHg 92%

27 January, Wednesday

Time Temperature Precipitation Wind Pressure Humidity
00:00 -5°C° 0.2 mm 9 mps 728 mmHg 92%
01:00 -5°C° 0.2 mm 9 mps 728 mmHg 92%
02:00 -5°C° 0.2 mm 10 mps 728 mmHg 92%
03:00 -5°C° 0.2 mm 10 mps 729 mmHg 93%
04:00 -5°C° 0.2 mm 10 mps 729 mmHg 93%
05:00 -5°C° 0.2 mm 10 mps 729 mmHg 93%
06:00 -5°C° 0.2 mm 9 mps 730 mmHg 92%
07:00 -5°C° 0.2 mm 9 mps 730 mmHg 92%
08:00 -5°C° 0.2 mm 9 mps 730 mmHg 91%
09:00 -5°C° 0.2 mm 10 mps 731 mmHg 92%
10:00 -5°C° 0.2 mm 10 mps 731 mmHg 92%
11:00 -5°C° 0.2 mm 10 mps 732 mmHg 92%
12:00 -5°C° 0.2 mm 10 mps 732 mmHg 91%
13:00 -5°C° 0.2 mm 9 mps 733 mmHg 90%
14:00 -5°C° 0.2 mm 9 mps 733 mmHg 90%
15:00 -5°C° 0.1 mm 8 mps 733 mmHg 90%
16:00 -5°C° 0.1 mm 8 mps 734 mmHg 91%
17:00 -4°C° 0.1 mm 7 mps 734 mmHg 92%
18:00 -4°C° 0.1 mm 7 mps 735 mmHg 92%
19:00 -4°C° 0.1 mm 7 mps 735 mmHg 91%
20:00 -4°C° 0.1 mm 6 mps 735 mmHg 91%
21:00 -4°C° 0 mm 6 mps 736 mmHg 91%
22:00 -4°C° 0 mm 6 mps 736 mmHg 92%
23:00 -4°C° 0 mm 6 mps 736 mmHg 92%

28 January, Thursday

Time Temperature Precipitation Wind Pressure Humidity
00:00 -5°C° 0 mm 5 mps 736 mmHg 92%
01:00 -5°C° 0 mm 5 mps 736 mmHg 92%
02:00 -4°C° 0 mm 4 mps 736 mmHg 93%
03:00 -5°C° 0 mm 4 mps 736 mmHg 94%
04:00 -5°C° 0 mm 3 mps 736 mmHg 95%
05:00 -6°C° 0 mm 3 mps 736 mmHg 96%
06:00 -6°C° 0 mm 3 mps 736 mmHg 96%
07:00 -6°C° 0 mm 3 mps 736 mmHg 96%
08:00 -5°C° 0 mm 2 mps 737 mmHg 96%
09:00 -5°C° 0 mm 2 mps 737 mmHg 95%
10:00 -4°C° 0 mm 2 mps 737 mmHg 94%
11:00 -3°C° 0 mm 2 mps 737 mmHg 93%
12:00 -3°C° 0 mm 2 mps 736 mmHg 92%
13:00 -3°C° 0 mm 2 mps 736 mmHg 91%
14:00 -3°C° 0 mm 2 mps 736 mmHg 90%
15:00 -3°C° 0 mm 2 mps 736 mmHg 91%
16:00 -1°C° 0 mm 1 mps 736 mmHg 91%
17:00 -2°C° 0 mm 1 mps 736 mmHg 92%
18:00 -2°C° 0 mm 1 mps 736 mmHg 92%
19:00 -2°C° 0 mm 1 mps 736 mmHg 93%
20:00 -2°C° 0 mm 1 mps 736 mmHg 93%

29 January, Friday

Time Temperature Precipitation Wind Pressure Humidity
Show more